TimeCST,TemperatureF,Dew PointF,Humidity,Sea Level PressureIn,VisibilityMPH,Wind Direction,Wind SpeedMPH,Gust SpeedMPH,PrecipitationIn,Events,Conditions,WindDirDegrees,DateUTC
12:15 AM,41.0,36.9,85,30.03,10.0,SE,5.8,-,N/A,,Clear,130,2012-11-09 06:15:00
12:35 AM,41.0,37.0,86,30.03,10.0,SE,6.9,-,N/A,,Clear,130,2012-11-09 06:35:00
12:55 AM,40.5,36.9,87,30.03,10.0,ESE,5.8,-,N/A,,Clear,120,2012-11-09 06:55:00
1:15 AM,40.1,36.7,88,30.02,7.0,ESE,5.8,-,N/A,,Scattered Clouds,120,2012-11-09 07:15:00
1:35 AM,40.6,36.9,86,30.02,7.0,SE,5.8,-,N/A,,Mostly Cloudy,130,2012-11-09 07:35:00
1:55 AM,40.6,36.9,86,30.02,10.0,SE,5.8,-,N/A,,Scattered Clouds,130,2012-11-09 07:55:00
2:15 AM,40.6,36.9,86,30.02,10.0,SE,4.6,-,N/A,,Scattered Clouds,140,2012-11-09 08:15:00
2:35 AM,41.7,37.6,85,30.02,10.0,SSE,5.8,-,N/A,,Mostly Cloudy,150,2012-11-09 08:35:00
2:55 AM,42.8,37.8,82,30.01,10.0,SE,5.8,-,N/A,,Overcast,140,2012-11-09 08:55:00
3:15 AM,42.8,37.4,81,30.01,10.0,SE,8.1,-,N/A,,Overcast,140,2012-11-09 09:15:00
3:35 AM,43.2,38.3,83,30.02,10.0,SE,5.8,-,N/A,,Overcast,140,2012-11-09 09:35:00
3:55 AM,42.8,37.8,82,30.01,10.0,SE,5.8,-,N/A,,Overcast,140,2012-11-09 09:55:00
4:15 AM,42.4,37.8,83,30.01,10.0,SE,6.9,-,N/A,,Overcast,140,2012-11-09 10:15:00
4:35 AM,42.3,37.8,84,30.01,10.0,SE,5.8,-,N/A,,Overcast,130,2012-11-09 10:35:00
4:55 AM,42.8,38.3,84,30.02,10.0,SE,5.8,-,N/A,,Overcast,140,2012-11-09 10:55:00
5:15 AM,43.2,38.3,83,30.02,10.0,SE,6.9,-,N/A,,Overcast,140,2012-11-09 11:15:00
5:35 AM,42.8,39.2,87,30.02,10.0,SE,6.9,-,N/A,,Overcast,140,2012-11-09 11:35:00
5:55 AM,42.8,38.3,84,30.02,10.0,SE,5.8,-,N/A,,Overcast,140,2012-11-09 11:55:00
6:15 AM,41.7,37.8,86,30.01,10.0,SE,5.8,-,N/A,,Scattered Clouds,130,2012-11-09 12:15:00
6:35 AM,41.0,37.6,88,30.01,7.0,SE,5.8,-,N/A,,Scattered Clouds,130,2012-11-09 12:35:00
6:55 AM,40.5,37.4,89,30.01,7.0,SE,4.6,-,N/A,,Scattered Clouds,130,2012-11-09 12:55:00
7:15 AM,40.3,37.6,90,30.01,5.0,ESE,5.8,-,N/A,,Clear,120,2012-11-09 13:15:00
7:35 AM,41.2,37.9,88,30.01,7.0,ESE,6.9,-,N/A,,Clear,120,2012-11-09 13:35:00
7:55 AM,42.8,38.7,85,30.02,7.0,SE,6.9,-,N/A,,Clear,130,2012-11-09 13:55:00
8:15 AM,45.5,39.0,78,30.02,10.0,SE,8.1,-,N/A,,Mostly Cloudy,140,2012-11-09 14:15:00
8:35 AM,44.6,39.2,81,30.01,10.0,SSE,6.9,-,N/A,,Scattered Clouds,150,2012-11-09 14:35:00
8:55 AM,45.9,39.2,78,30.00,10.0,SE,6.9,-,N/A,,Mostly Cloudy,140,2012-11-09 14:55:00
9:15 AM,46.8,39.9,77,30.00,10.0,SSE,6.9,-,N/A,,Overcast,150,2012-11-09 15:15:00
9:35 AM,47.7,40.1,75,30.00,10.0,SSE,6.9,-,N/A,,Overcast,150,2012-11-09 15:35:00
9:55 AM,49.1,40.6,73,30.00,10.0,SSE,8.1,-,N/A,,Overcast,160,2012-11-09 15:55:00
10:15 AM,50.2,41.4,72,30.00,10.0,SSE,6.9,-,N/A,,Overcast,160,2012-11-09 16:15:00
10:35 AM,51.6,41.9,69,30.00,10.0,South,8.1,-,N/A,,Overcast,170,2012-11-09 16:35:00
10:55 AM,52.5,42.3,68,29.99,10.0,SSE,6.9,-,N/A,,Overcast,160,2012-11-09 16:55:00
11:15 AM,54.5,43.0,65,29.98,10.0,SSE,5.8,-,N/A,,Mostly Cloudy,150,2012-11-09 17:15:00
11:35 AM,56.3,43.7,63,29.97,10.0,SSE,6.9,-,N/A,,Scattered Clouds,160,2012-11-09 17:35:00
11:55 AM,57.0,43.9,61,29.96,10.0,SSE,6.9,-,N/A,,Clear,150,2012-11-09 17:55:00
12:15 PM,57.4,43.9,61,29.95,10.0,SE,6.9,-,N/A,,Scattered Clouds,140,2012-11-09 18:15:00
12:35 PM,58.5,44.4,60,29.94,10.0,SSE,5.8,-,N/A,,Scattered Clouds,150,2012-11-09 18:35:00
12:55 PM,59.7,45.0,58,29.94,10.0,South,6.9,-,N/A,,Scattered Clouds,170,2012-11-09 18:55:00
1:15 PM,60.3,45.7,59,29.93,10.0,South,6.9,-,N/A,,Scattered Clouds,180,2012-11-09 19:15:00
1:35 PM,61.2,45.7,57,29.92,10.0,South,6.9,-,N/A,,Clear,170,2012-11-09 19:35:00
1:55 PM,60.8,45.3,57,29.91,10.0,SSE,5.8,-,N/A,,Clear,160,2012-11-09 19:55:00
2:15 PM,60.3,45.3,58,29.91,10.0,SE,4.6,-,N/A,,Clear,140,2012-11-09 20:15:00
2:35 PM,59.9,45.7,59,29.91,10.0,SE,6.9,-,N/A,,Clear,130,2012-11-09 20:35:00
2:55 PM,60.1,46.0,60,29.90,10.0,East,9.2,-,N/A,,Clear,100,2012-11-09 20:55:00
3:15 PM,60.1,45.9,59,29.91,10.0,ESE,9.2,-,N/A,,Clear,110,2012-11-09 21:15:00
3:35 PM,59.2,45.9,61,29.90,10.0,ESE,6.9,-,N/A,,Clear,110,2012-11-09 21:35:00
3:55 PM,58.3,46.4,65,29.90,10.0,ESE,4.6,-,N/A,,Clear,120,2012-11-09 21:55:00
4:15 PM,57.7,46.4,66,29.91,10.0,ESE,4.6,-,N/A,,Clear,110,2012-11-09 22:15:00
4:35 PM,56.5,45.9,68,29.90,10.0,East,4.6,-,N/A,,Clear,100,2012-11-09 22:35:00
4:55 PM,55.6,46.4,71,29.90,10.0,East,6.9,-,N/A,,Clear,100,2012-11-09 22:55:00
5:15 PM,55.2,46.4,72,29.90,10.0,East,6.9,-,N/A,,Clear,100,2012-11-09 23:15:00
5:35 PM,54.7,46.6,74,29.90,10.0,ESE,5.8,-,N/A,,Clear,110,2012-11-09 23:35:00
5:55 PM,54.3,46.4,75,29.90,10.0,East,4.6,-,N/A,,Clear,100,2012-11-09 23:55:00
6:15 PM,53.6,46.4,77,29.90,10.0,East,4.6,-,N/A,,Clear,90,2012-11-10 00:15:00
6:35 PM,53.1,46.2,78,29.90,10.0,East,5.8,-,N/A,,Clear,100,2012-11-10 00:35:00
6:55 PM,52.9,46.4,79,29.90,10.0,East,4.6,-,N/A,,Clear,90,2012-11-10 00:55:00
7:15 PM,53.6,46.6,77,29.90,10.0,East,5.8,-,N/A,,Clear,90,2012-11-10 01:15:00
7:35 PM,53.6,46.8,78,29.90,10.0,East,5.8,-,N/A,,Clear,100,2012-11-10 01:35:00
7:55 PM,53.8,47.3,79,29.90,10.0,East,6.9,-,N/A,,Clear,100,2012-11-10 01:55:00
8:15 PM,54.0,47.3,78,29.90,10.0,ESE,6.9,-,N/A,,Clear,110,2012-11-10 02:15:00
8:35 PM,53.6,47.5,80,29.91,10.0,East,5.8,-,N/A,,Clear,90,2012-11-10 02:35:00
8:55 PM,53.6,47.5,80,29.91,10.0,East,5.8,-,N/A,,Clear,90,2012-11-10 02:55:00
9:15 PM,53.8,47.7,80,29.91,10.0,East,6.9,-,N/A,,Clear,90,2012-11-10 03:15:00
9:35 PM,53.8,47.8,80,29.91,10.0,East,5.8,-,N/A,,Clear,100,2012-11-10 03:35:00
9:55 PM,54.0,48.0,80,29.91,10.0,ESE,6.9,-,N/A,,Clear,110,2012-11-10 03:55:00
10:15 PM,53.1,47.8,82,29.91,10.0,East,6.9,-,N/A,,Clear,100,2012-11-10 04:15:00
10:35 PM,53.4,48.2,82,29.92,10.0,East,5.8,-,N/A,,Clear,100,2012-11-10 04:35:00
10:55 PM,53.6,48.4,82,29.92,10.0,ESE,5.8,-,N/A,,Clear,110,2012-11-10 04:55:00
11:15 PM,53.2,48.4,84,29.92,10.0,ESE,6.9,-,N/A,,Scattered Clouds,120,2012-11-10 05:15:00
11:35 PM,53.1,48.4,84,29.92,10.0,ESE,5.8,-,N/A,,Scattered Clouds,120,2012-11-10 05:35:00
11:55 PM,53.1,48.6,85,29.92,10.0,SE,6.9,-,N/A,,Mostly Cloudy,130,2012-11-10 05:55:00